Regional Weather Roundup
Issued by NWS

Home | Current Version | Previous Version | Text Only | Print | Product List | Glossary Off
Versions: 1 2 3 4 5 6 7 8 9 10 11 12 13 14 15 16 17 18 19 20 21 22 23 24 25 26 27 28 29 30 31 32 33 34 35 36 37 38 39 40 41 42 43 44 45 46 47 48 49 50

000
ASUS43 KMKX 020911
RWRWI

WISCONSIN REGIONAL WEATHER ROUNDUP
NATIONAL WEATHER SERVICE MILWAUKEE/SULLIVAN WI
400 AM CDT MON MAY 02 2016

NOTE: "FAIR" INDICATES FEW OR NO CLOUDS BELOW 12,000 FEET WITH NO
SIGNIFICANT WEATHER AND/OR OBSTRUCTIONS TO VISIBILITY.

WIZ001-002-006>008-014>016-023>028-021000-
NORTHWEST WISCONSIN

CITY           SKY/WX    TMP DP  RH WIND       PRES   REMARKS
SUPERIOR ARPT  CLEAR     28  28 100 CALM      30.15S
ASHLAND        PTCLDY    27  27 100 CALM      30.15S FOG
HAYWARD        CLEAR     31  28  89 N3        30.13R
SIREN          CLEAR     30  29  94 CALM      30.13S FOG
CUMBERLAND     CLEAR     36  32  87 CALM      30.11S
RICE LAKE      CLEAR     37  34  89 CALM      30.13S
CHETEK         CLEAR     37  34  89 CALM      30.12S
LADYSMITH      PTCLDY    34  32  91 CALM      30.14S
EAU CLAIRE     MOCLDY    40  36  86 CALM      30.11S
MENOMONIE      PTCLDY    39  32  75 CALM      30.12S
NEW RICHMOND   CLEAR     37  33  84 CALM      30.11S
OSCEOLA        CLEAR     35  35 100 CALM      30.14F
$$

WIZ003>005-009-010-017-018-021000-
NORTH CENTRAL WISCONSIN

CITY           SKY/WX    TMP DP  RH WIND       PRES   REMARKS
MANITOWISH WTR CLEAR     30  30 100 CALM      30.11F
ARBOR VITAE    CLEAR     32  30  92 CALM      30.12S
WOODRUFF       CLEAR     32  30  92 CALM      30.12S
RHINELANDER    CLEAR     30  26  85 CALM      30.12S
EAGLE RIVER    FOG       30  30 100 CALM      30.11S VSB 1
LAND O LAKES   CLEAR     29  28  97 CALM      30.13R
PHILLIPS       CLEAR     32  31  97 CALM      30.11S
TOMAHAWK       CLEAR     29  28  95 CALM      30.13S
MEDFORD        CLEAR     35  33  94 CALM      30.12R
MERRILL        CLEAR     32  31  98 CALM      30.13S
$$

WIZ029-030-035-036-043>047-021000-
CENTRAL WISCONSIN

CITY           SKY/WX    TMP DP  RH WIND       PRES   REMARKS
WAUSAU         CLEAR     39  34  82 N3        30.11R
MOSINEE        CLEAR     39  34  81 N6        30.13S WCI  35
MARSHFIELD     CLEAR     37  31  78 NW6       30.10F WCI  32
STEVENS POINT  PTCLDY    31  30  94 N5        30.11F WCI  26
WAUPACA        CLEAR     38  34  85 CALM      30.12S
WAUTOMA        CLEAR     32  30  92 CALM      30.11F
WISC RAPIDS    PTCLDY    35  31  85 CALM      30.12S
CAMP DOUGLAS   CLEAR     32  32 100 NW6       30.11S WCI  26
$$

WIZ011>013-019>022-031-037>040-048>050-021000-
NORTHEAST WISCONSIN

CITY           SKY/WX    TMP DP  RH WIND       PRES   REMARKS
ANTIGO         CLEAR     32  31  95 CALM      30.11S
SHAWANO        CLEAR     42  33  70 N3        30.11S
OCONTO         CLEAR     34  34 100 CALM      30.10S
STURGEON BAY   CLEAR     39  34  81 N7        30.11S WCI  34
GREEN BAY      CLEAR     39  33  79 N6        30.10S WCI  35
MANITOWOC      CLEAR     40  34  79 CALM      30.09S
APPLETON       CLEAR     37  32  81 N6        30.09R WCI  33
CLINTONVILLE   CLEAR     39  32  75 CALM      30.11S
OSHKOSH        PTCLDY    42  36  79 NW5       30.10R
$$

WIZ032>034-041-042-053>061-021000-
SOUTHWEST WISCONSIN

CITY           SKY/WX    TMP DP  RH WIND       PRES   REMARKS
LA CROSSE      PTCLDY    40  36  86 E5        30.12S
SPARTA         MOCLDY    31  30  96 CALM      30.13S
VIROQUA        CLEAR     40  36  86 CALM      30.11S
BOSCOBEL       FOG       38  37  97 CALM      30.12R VSB 1/4
PRAIRIE DU CHI FOG       42  41  97 CALM      30.12S VSB 1/4
PLATTEVILLE    CLOUDY    44  42  93 NE6       30.09S
$$

WIZ056-057-062-063-064-067-068-021000-
SOUTH CENTRAL WISCONSIN

CITY           SKY/WX    TMP DP  RH WIND       PRES   REMARKS
REEDSBURG      CLEAR     36  35  99 CALM      30.11R
BARABOO/DELLS  CLEAR     34  33  96 CALM      30.10R
LONE ROCK      MOCLDY    37  36  96 W7        30.11R WCI  32
MINERAL POINT  CLOUDY    45  43  93 CALM      30.10R
MADISON        MOCLDY    44  39  82 N3        30.08S
MIDDLETON      MOCLDY    46  41  84 N5        30.09R
WATERTOWN      MOCLDY    44  44  99 N6        30.07F
MONROE         CLOUDY    45  43  93 N6        30.07R
JANESVILLE     CLOUDY    46  45  93 N5        30.06R
$$

WIZ051-052-058>065-066-070>072-021000-
SOUTHEAST WISCONSIN

CITY           SKY/WX    TMP DP  RH WIND       PRES   REMARKS
MILWAUKEE      MOCLDY    43  38  82 N7        30.06F
WAUKESHA       PTCLDY    41  37  87 N5        30.08F
MILWAUKEE/TIMM CLOUDY    43  36  75 N7        30.08S
RACINE         CLOUDY    43  39  86 N6        30.07F
BURLINGTON     CLOUDY    44  43  96 N6        30.05F
KENOSHA        CLOUDY    44  41  89 N7        30.05S
FOND DU LAC    CLEAR     40  37  89 NW5       30.09R
SHEBOYGAN      CLEAR     40  34  79 N6        30.09R
WEST BEND      MOCLDY    41  36  81 CALM      30.08S
JUNEAU         PTCLDY    42  39  88 N5        30.09F
$$

LSZ147-162-021000-
LAKE SUPERIOR

STATION/POSITION TIME  TEMP    WIND        PRES    WAVE
                       AIR SEA DIR/SP/G            HT/PER
                 (UTC) (F)     (DEG/KT/KT) (MB)    (FT/S)
W MID LAKE BUOY  0850   37 36   CALM  /  2 1021.2R   1/ 5
DEVILS ISLAND    0900   40      CALM  /  1 1021.5R
SAXON HARBOR     0800   30     190/  3/  4 1020.3S
$$

LMZ867-665-643>646-021000-
LAKE MICHIGAN

STATION/POSITION TIME  TEMP    WIND        PRES    WAVE
                       AIR SEA DIR/SP/G            HT/PER
                 (UTC) (F)     (DEG/KT/KT) (MB)    (FT/S)
CHAMBERS ISLAND  0800   42     330/  5/  7 1019.3S
N MID LAKE BUOY  0850   40 38  300/  6/  6 1018.6R   1
NORTHPORT PIER   0800   41     310/  7/  9 1019.0S
KEWAUNEE LAKESHO 0800   40     310/  4/  5 1018.0F
SHEBOYGAN LAKESH 0900   44     350/ 12/ 14 1019.6R
PORT WASHINGTON  0800   46     360/  5/  8 1019.3
S MID LAKE BUOY  0850   42 40   10/  8/ 10 1017.5R   2/ 5
KENOSHA   LAKESH 0900   45     360/  9/ 11 1017.6S
$$

TC  - TEMPERATURE IN CELSIUS
VSB - VISIBILITY IN STATUTE MILES
WCI - WIND CHILL INDEX
HX  - HEAT INDEX





USA.gov is the U.S. government's official web portal to all federal, state and local government web resources and services.